Skip Page Navigation
NASA JPL Caltech
NASA Logo - Jet Propulsion Laboratory + View the NASA Portal
+ Center for Near-Earth Object Studies
JPL Home Earth Solar System Stars & Galaxies Technology
JPL Solar System Dynamics
BODIES ORBITS EPHEMERIDES TOOLS PHYSICAL DATA DISCOVERY FAQ SITE MAP
IMPORTANT: The SSD Announcement email list is now available. Major changes are coming in the near future, including possible hostname and/or URL changes. To be notified of such changes, subscribe to this email list.

Please visit this page for more details.


JPL Small-Body Database Browser
Search: [ help ]  
379077 (2008 WV125)
Classification: Main-belt Asteroid          SPK-ID: 2379077
Ephemeris | Orbit Diagram | Orbital Elements | Mission Design | Physical Parameters | Discovery Circumstances | Close-Approach Data ]

[ show orbit diagram ]
Orbital Elements at Epoch 2458600.5 (2019-Apr-27.0) TDB
Reference: JPL 13 (heliocentric ecliptic J2000)
 Element Value Uncertainty (1-sigma)   Units 
e .162968550502804 8.7709e-08  
a 3.174298741296766 8.0776e-08 au
q 2.656987876564756 2.6969e-07 au
i 1.123258783834212 1.0482e-05 deg
node 163.2915048362089 0.00038277 deg
peri 286.7950218160057 0.00038514 deg
M 312.0910559339779 4.0453e-05 deg
tp 2458875.406001056053
(2020-Jan-26.90600106)
0.00023771 TDB
period 2065.713663899507
5.66
7.8849e-05
2.159e-07
d
yr
n .1742739113805433 6.6521e-09 deg/d
Q 3.691609606028775 9.394e-08 au
  Orbit Determination Parameters
   # obs. used (total)      91  
   data-arc span      5353 days (14.66 yr)  
   first obs. used      2005-04-10  
   last obs. used      2019-12-06  
   planetary ephem.      DE431  
   SB-pert. ephem.      SB431-N16  
   condition code      0  
   norm. resid. RMS      .58629  
   source      ORB  
   producer      Otto Matic  
   solution date      2019-Dec-14 21:12:41  

Additional Information
 Earth MOID = 1.67383 au 
 Jupiter MOID = 1.51644 au 
 T_jup = 3.180 
[ show covariance matrix ]

Ephemeris | Orbit Diagram | Orbital Elements | Mission Design | Physical Parameters | Discovery Circumstances | Close-Approach Data ]

Physical Parameter Table
Parameter Symbol Value Units Sigma Reference Notes
absolute magnitude H 16.9   n/a MPO334969  

379077 (2008 WV125)          Discovered 2008-Nov-21 by Mt. Lemmon Survey at Mount Lemmon
Reference: Last Updated: 2013-11-20

[ hide close-approach data ]
Close-Approach Data   ...sorted by Date/Time (TDB)
Date/Time (TDB) Time Uncertainty
(days_HH:MM)
Body Nominal Distance (au) Minimum Distance (au) Maximum Distance (au) V-relative (km/s) V-infinity (km/s) JD (TDB) Time Uncertainty (minutes) Semi-major axis (km) Semi-minor axis (km) range-LOV angle (deg) N-sigma BP Orbit Ref. Reference Modified
1927-Jul-15 09:25 00:14 Jupiter 1.90162776062926 1.90162115437397 1.90163436695071 3.45844910037282 3.32716556969572 2425076.892474336 14.3661212066064 675.196506333637 50.387870168264 69.6246170831085 996675.633554351 T 13 CATAB v2.0f-lin.ifort 2019-Dec-14 21:12:42 2019-Dec-14 21:12
1938-May-25 15:29 00:12 Jupiter 1.68881676114213 1.68881251516037 1.68882100713791 2.23756657687391 2.00090188846513 2429044.145150727 12.324618210415 425.337772292942 9.80224828882575 -85.6412912588691 728476.840607098 T 13 CATAB v2.0f-lin.ifort 2019-Dec-14 21:12:42 2019-Dec-14 21:12
1949-Apr-23 02:43 00:10 Jupiter 1.58930093029339 1.58929991439903 1.58930194618459 1.65182879151755 1.28943110969229 2433029.612931530 9.65112885592339 263.401064612503 137.116617638218 -47.3823019614218 768701.872712584 T 13 CATAB v2.0f-lin.ifort 2019-Dec-14 21:12:42 2019-Dec-14 21:12
1960-Apr-05 06:46 00:07 Jupiter 1.65141007703805 1.65140803625392 1.65141211781617 1.69957665620296 1.36482361760129 2437029.781811235 7.44304804368959 153.259264006936 107.688821392004 -70.7228803402991 643314.820121922 T 13 CATAB v2.0f-lin.ifort 2019-Dec-14 21:12:42 2019-Dec-14 21:12
1971-Mar-14 18:27 00:06 Jupiter 1.84287241345973 1.84286965887967 1.8428751680403 2.25279337946509 2.03858686000323 2441025.268457917 5.66363255530861 211.610816687893 20.6964376603719 81.6884940922339 784271.484900713 T 13 CATAB v2.0f-lin.ifort 2019-Dec-14 21:12:42 2019-Dec-14 21:12
2058-Aug-12 05:32 00:05 Jupiter 1.98807055710783 1.98806809233714 1.98807302188429 3.99321951817721 3.88506075049873 2472952.730822443 4.96716217304787 241.004836536993 54.746209934167 68.596397732744 1108321.00654525 T 13 CATAB v2.0f-lin.ifort 2019-Dec-14 21:12:42 2019-Dec-14 21:12
2069-Jun-19 07:37 00:07 Jupiter 1.74040230971135 1.74039979853836 1.74040482089207 2.59178285384934 2.39665899050925 2476916.817506953 6.51997350029374 284.446374181909 26.6170563091986 84.4563133792863 867066.457141328 T 13 CATAB v2.0f-lin.ifort 2019-Dec-14 21:12:42 2019-Dec-14 21:12
2080-May-08 17:40 00:08 Jupiter 1.58639688116982 1.58639571244526 1.58639804989293 1.74480893107653 1.40588093203871 2480893.236428910 8.01351637260903 303.663865616482 106.438927742874 -58.9368804894337 775625.98418377 T 13 CATAB v2.0f-lin.ifort 2019-Dec-14 21:12:42 2019-Dec-14 21:12
2091-Apr-17 12:40 00:10 Jupiter 1.5946125486416 1.59461020919139 1.5946148880881 1.59346412411641 1.21522535071615 2484889.028112813 9.84419845107547 221.594015885957 137.315654066739 65.0586436385329 804822.575361105 T 13 CATAB v2.0f-lin.ifort 2019-Dec-14 21:12:42 2019-Dec-14 21:12
2102-Mar-27 19:00 00:12 Jupiter 1.75833632589891 1.75833090176152 1.7583417500237 2.01158217229896 1.75585493220288 2488885.291498909 12.0968228655176 275.513121434245 26.4568675800224 87.5804371300136 540189.752378244 T 13 CATAB v2.0f-lin.ifort 2019-Dec-14 21:12:42 2019-Dec-14 21:12
2200-Jul-21 14:48 00:26 Jupiter 1.82005125360127 1.82003937631227 1.82006313110133 3.06944481645905 2.91388464416814 2524795.116565484 26.1927635336314 1188.92972281651 44.7507325688089 72.2189376257681 906680.091560005 T 13 CATAB v2.0f-lin.ifort 2019-Dec-14 21:12:42 2019-Dec-14 21:12
Ephemeris | Orbit Diagram | Orbital Elements | Mission Design | Physical Parameters | Discovery Circumstances | Close-Approach Data ]
ABOUT SSD CREDITS/AWARDS PRIVACY/COPYRIGHT GLOSSARY LINKS
FirstGov 2020-Jan-20 03:59 UT
(server date/time)  
NASA Home Page
Site Manager:   Ryan S. Park
Webmaster  Alan B. Chamberlin